Location: Hat Ranch Observatory
(35.4668°N, 106.0752°W)
Time: 13:07:10
(UTC-06:00)

X-37B - Pass Details

Date: 28 January 2022
Orbit: 329 x 342 km, 45.0° (Epoch: 18 May)

Event Time Altitude Azimuth Distance (km) Brightness Sun altitude
Rises 18:30:23 0° 264° (W) 2,107 6.3 -12.9°
Reaches altitude 10° 18:32:34 10° 277° (W) 1,269 4.4 -13.3°
Maximum altitude 18:35:03 26° 338° (NNW) 697 1.9 -13.8°
Enters shadow 18:36:23 18° 22° (NNE) 900 2.1 -14.1°
